date,time,DOY,Ta_1_1_1,RH_1_1_1,LWin_1_1_1,LWout_1_1_1,SWin_1_1_1,SWout_1_1_1,PPFD_1_1_1,SWC_1_1_1,Ts_1_1_1
[yyyy-mm-dd],[HH:MM],[ddd.ddd],[K],[%],[W+1m-2],[W+1m-2],[W+1m-2],[W+1m-2],[µmol+1m-2s-1],[m+3m-3],[K]
2013-01-29,00:30,29.020,271.20666666666659,96.400000000000006,-5.4740000000000011,-9999.0,-0.20933333333333343,-0.76933333333333354,6.00000000000000099E-003,-9999.0,279.90999999999991
2013-01-29,01:00,29.041,271.16433333333333,96.012666666666675,-5.7120000000000015,-9999.0,-0.26633333333333326,-0.76366666666666683,6.33333333333333404E-003,-9999.0,279.90999999999991
2013-01-29,01:30,29.062,271.15533333333332,95.998333333333377,-5.3826666666666689,-9.1999999999999993,-0.27366666666666667,-0.55333333333333334,3.66666666666666616E-003,-9999.0,279.90999999999991
2013-01-29,02:00,29.083,271.17033333333336,96.090666666666678,-5.0489999999999986,-7.8540000000000001,-0.29633333333333334,-0.39366666666666666,5.33333333333333402E-003,-9999.0,279.90999999999991
2013-01-29,02:30,29.104,271.29100000000005,96.348000000000013,-3.6460000000000004,-1.8570000000000002,-0.58500000000000008,1.4989999999999999,2.00000000000000004E-003,-9999.0,279.90999999999991
2013-01-29,03:00,29.124,271.73433333333338,97.377333333333340,-3.1109999999999993,0.50133333333333330,-1.4199999999999995,2.9746666666666672,1.66666666666666677E-003,-9999.0,279.90999999999991
2013-01-29,03:30,29.145,272.06933333333330,97.070000000000022,-2.7466666666666670,-0.76299999999999990,-0.85033333333333350,1.7446666666666666,1.00000000000000002E-003,-9999.0,279.90999999999991
2013-01-29,04:00,29.166,272.29933333333344,97.505000000000010,-2.8560000000000003,-0.62800000000000011,-0.69166666666666654,1.4213333333333333,3.99999999999999922E-003,-9999.0,279.90999999999991
2013-01-29,04:30,29.187,272.68433333333331,98.260999999999967,-3.1583333333333332,-2.2456666666666667,-0.16366666666666668,4.46666666666666184E-002,5.66666666666666707E-003,-9999.0,279.90999999999991
2013-01-29,05:00,29.208,273.03633333333329,98.052333333333323,-3.5203333333333333,-5.2344444444444456,5.63333333333333047E-002,-0.38600000000000012,3.99999999999999922E-003,-9999.0,279.90999999999991
2013-01-29,05:30,29.229,272.73566666666665,97.863999999999990,-3.6206666666666658,-1.5863333333333336,-0.13100000000000003,-0.24233333333333337,2.00000000000000004E-003,-9999.0,279.90999999999991
2013-01-29,06:00,29.249,272.85333333333335,98.331333333333362,-3.4800000000000009,-2.3136666666666672,-0.42966666666666681,0.21299999999999997,5.33333333333333402E-003,-9999.0,279.90999999999991
2013-01-29,06:30,29.270,273.01300000000009,98.751666666666651,-4.0446666666666671,-3.9496666666666660,-9.76666666666666516E-002,-0.15166666666666667,4.66666666666666705E-003,-9999.0,279.90999999999991
2013-01-29,07:00,29.291,273.14499999999992,99.403000000000006,-4.0919999999999996,-3.3186666666666671,-0.19533333333333339,0.20366666666666675,7.66666666666666712E-003,-9999.0,279.90999999999991
2013-01-29,07:30,29.312,273.24133333333339,99.819666666666620,-4.1103333333333332,-3.2126666666666663,7.06666666666666693E-002,0.59066666666666690,1.1960000000000004,-9999.0,279.90999999999991
2013-01-29,08:00,29.333,273.31333333333339,99.968999999999994,-4.4800000000000004,-2.8209999999999997,1.0366666666666666,3.6993333333333331,8.2123333333333317,-9999.0,279.90999999999991
2013-01-29,08:30,29.354,273.32466666666670,99.969666666666640,-4.4296666666666660,-2.1846666666666663,2.4686666666666657,9.6526666666666650,22.290333333333340,-9999.0,279.90999999999991
2013-01-29,09:00,29.374,273.29733333333331,99.967999999999989,-4.5876666666666672,-1.2383333333333335,2.0623333333333336,9.2263333333333346,23.642999999999997,-9999.0,279.90999999999991
2013-01-29,09:30,29.395,273.34566666666672,99.967666666666673,-4.8933333333333335,-1.1283333333333334,3.7709999999999999,16.172000000000001,41.723666666666666,-9999.0,279.90999999999991
2013-01-29,10:00,29.416,273.41600000000000,99.967333333333315,-5.4879999999999995,-0.81833333333333336,6.8329999999999993,28.849333333333334,75.424666666666653,-9999.0,279.90999999999991
2013-01-29,10:30,29.437,273.45033333333339,99.971333333333320,-6.1346666666666669,-0.57699999999999996,9.9056666666666651,41.849666666666657,109.66366666666666,-9999.0,279.90999999999991
2013-01-29,11:00,29.458,273.46000000000009,99.970333333333329,-6.6606666666666676,-0.48566666666666680,11.164666666666665,47.923000000000009,124.58366666666667,-9999.0,279.90999999999991
2013-01-29,11:30,29.479,273.50266666666670,99.970666666666631,-6.5839999999999987,-0.26300000000000007,17.299333333333333,73.530000000000001,191.79566666666670,-9999.0,279.90999999999991
2013-01-29,12:00,29.499,273.53733333333344,99.969999999999999,-5.9023333333333330,-0.57633333333333348,14.487333333333337,62.084333333333326,162.57333333333335,-9999.0,279.90999999999991
2013-01-29,12:30,29.520,273.54166666666674,99.968999999999980,-5.4903333333333313,-0.55966666666666665,14.943666666666665,66.667666666666676,171.24366666666660,-9999.0,279.90999999999991
2013-01-29,13:00,29.541,273.54966666666672,99.968666666666650,-5.4483333333333350,-0.70266666666666688,16.551666666666669,79.643000000000001,194.93733333333333,-9999.0,279.90999999999991
2013-01-29,13:30,29.562,273.43900000000002,99.970999999999975,-4.9930000000000003,-1.4536666666666664,13.745333333333333,68.588000000000008,159.83833333333334,-9999.0,279.90999999999991
2013-01-29,14:00,29.583,272.88233333333335,99.971333333333305,-3.8926666666666674,-3.7680000000000002,10.508999999999999,55.520999999999994,131.71000000000001,-9999.0,279.90999999999991
2013-01-29,14:30,29.604,272.45366666666672,99.969666666666640,-2.8656666666666668,-4.8526666666666669,6.0873333333333317,34.224666666666671,83.238000000000000,-9999.0,279.90999999999991
2013-01-29,15:00,29.624,272.11433333333338,99.969666666666640,-2.8496666666666663,-5.3616666666666672,6.5633333333333317,34.802666666666667,82.479333333333358,-9999.0,279.90999999999991
2013-01-29,15:30,29.645,272.13200000000001,99.259999999999977,-3.3839999999999999,-6.3519999999999994,7.4643333333333324,38.914666666666655,89.450999999999979,-9999.0,279.90999999999991
2013-01-29,16:00,29.666,272.14966666666675,96.940666666666658,-3.6636666666666664,-6.6376666666666688,3.8939999999999997,21.349333333333334,50.000666666666660,-9999.0,279.90999999999991
2013-01-29,16:30,29.687,272.07633333333342,96.075666666666635,-3.6956666666666678,-6.9603333333333346,2.3839999999999995,13.187666666666667,30.748666666666661,-9999.0,279.90999999999991
2013-01-29,17:00,29.708,271.94200000000001,96.298000000000030,-4.0569999999999995,-7.1143333333333345,3.10000000000000171E-002,2.0163333333333338,6.8036666666666674,-9999.0,279.90999999999991
2013-01-29,17:30,29.729,271.68533333333346,96.072666666666663,-4.0540000000000003,-7.4729999999999999,-0.54400000000000004,-0.88233333333333330,0.42566666666666658,-9999.0,279.90999999999991
2013-01-29,18:00,29.749,271.58600000000001,93.886000000000010,-3.8219999999999996,-8.2576666666666672,-0.53799999999999992,-1.3993333333333333,6.33333333333333318E-003,-9999.0,279.90999999999991
2013-01-29,18:30,29.770,271.56333333333339,92.780333333333331,-4.1170000000000000,-8.7539999999999996,-0.47233333333333338,-1.4463333333333332,3.99999999999999922E-003,-9999.0,279.90999999999991
2013-01-29,19:00,29.791,271.57033333333339,92.412999999999997,-4.4086666666666661,-9.0930000000000000,-0.53800000000000003,-1.4869999999999999,3.66666666666666616E-003,-9999.0,279.90999999999991
2013-01-29,19:30,29.812,271.57966666666664,92.668666666666667,-4.7813333333333334,-9.3140000000000001,-0.48833333333333345,-1.3960000000000001,5.66666666666666707E-003,-9999.0,279.90999999999991
2013-01-29,20:00,29.833,271.55466666666666,94.326000000000008,-4.9496666666666682,-8.4383333333333344,-0.50500000000000000,-1.1346666666666663,6.00000000000000186E-003,-9999.0,279.90999999999991
2013-01-29,20:30,29.854,271.55400000000003,93.424999999999983,-4.6803333333333343,-9.1110000000000007,-0.39733333333333332,-1.1920000000000002,2.66666666666666658E-003,-9999.0,279.90999999999991
2013-01-29,21:00,29.874,271.53466666666668,93.602333333333348,-4.4823333333333331,-8.3556666666666679,-0.34133333333333338,-1.0380000000000000,3.66666666666666616E-003,-9999.0,279.90999999999991
2013-01-29,21:30,29.895,271.51333333333338,93.554333333333318,-4.9543333333333335,-9.1874074074074095,-0.33966666666666667,-1.1280000000000003,1.33333333333333329E-003,-9999.0,279.90999999999991
2013-01-29,22:00,29.916,271.42400000000004,93.698666666666668,-4.8336666666666668,-9.0013333333333314,-0.31599999999999995,-1.0896666666666668,2.00000000000000004E-003,-9999.0,279.90999999999991
2013-01-29,22:30,29.937,271.19600000000003,93.361000000000004,-4.3393333333333324,-8.3283333333333314,-0.25866666666666671,-0.99766666666666692,2.66666666666666658E-003,-9999.0,279.90999999999991
2013-01-29,23:00,29.958,270.94400000000007,95.607666666666688,-4.0773333333333328,-7.5850000000000000,-0.33000000000000002,-0.76800000000000002,2.66666666666666701E-003,-9999.0,279.90999999999991
2013-01-29,23:30,29.979,270.50933333333336,97.422666666666629,-3.2716666666666669,-6.4226666666666654,-0.36833333333333335,-0.30966666666666670,1.66666666666666677E-003,-9999.0,279.90999999999991
2013-01-30,00:00,30.000,270.25733333333335,97.415333333333351,-3.4933333333333332,-6.8819999999999997,-0.43833333333333346,-0.31233333333333330,4.66666666666666619E-003,-9999.0,279.90999999999991
